www.pogodaiklimat.ru

Погода и климат >> Архив погоды >> Россия >> Дагестан >> Махачкала


АРХИВ ПОГОДЫ в Махачкале

Время (UTC), дата Ветер
(напр.,м/с)
 
Видим.   Явления Облачность Т
(С)
Тd
(С)
f
(%)
Тe
(С)
Тes
(С)
Комфортность P
(гПа)
Po
(гПа)
Тmin
(С)
Tmax
(С)
R
(мм)
R24
(мм)
S
(см)
00 9.07 штиль 0 10 км ясно +20.9 +16.3 75 +24 +24 комфорт 1003.6 1005.7
03 9.07 З 3 10 км 4/0
[Ci fib]
+23.9 +15.6 60 +27 +28 жарко 1004.9 1006.9 +20.5
06 9.07 СЗ 6-11
{11}
н/о н/о +31.1 +15.6 39 +34 +34 душно 1005.1 1007.1
09 9.07 СЗ 8-17
{17}
10 км 8/0
[Ac cast Ci fib]
+32.9 +12.9 30 +34 +36 очень
жарко
1004.9 1006.9
12 9.07 З 6-13
{17}
10 км 10/6 600 м
[Sc diur, vesp Ac As]
+32.8 +12.3 29 +33 +34 жарко 1005.3 1007.3 250
15 9.07 З 5
{13}
10 км 10/6 600 м
[Sc diur, vesp Ac As]
+32.1 +12.3 30 +33 +33 жарко 1005.9 1007.9 +33.9 3
18 9.07 З 3
{10}
10 км 8/0
[Ac cast Ci fib]
+28.4 +13.9 41 +30 +30 жарко 1007.5 1009.5
21 9.07 З 5 10 км 9/0
[Ac cast Ci fib]
+26.1 +14.2 48 +28 +28 жарко 1008.0 1010.0
00 10.07 СЗ 3
{10}
10 км 8/0
[Ac cast Ci fib]
+24.8 +14.2 52 +27 +27 жарко 1008.5 1010.5
03 10.07 З 4 н/о н/о +24.9 +15.1 54 +28 +28 жарко 1009.7 1011.7 +24.0
06 10.07 СЗ 4
{10}
20 км 8/3 600 м
[Cb calv Ac trans Ci fib]
+28.4 +9.9 32 +29 +33 жарко 1008.9 1011.0
09 10.07 В 2 20 км 3/0
[Ci fib]
+30.2 +12.7 34 +31 +49 жарко 1007.3 1009.3 230
12 10.07 В 2 20 км ясно +28.8 +17.8 51 +33 +44 очень
душно
1006.7 1008.7
15 10.07 ЮВ 2
{11}
20 км ясно +26.3 +18.2 61 +31 +32 душно 1007.0 1009.1 +31.0
18 10.07 В 1 20 км 3/0
[Ci fib]
+23.7 +19.6 78 +29 +29 душно 1007.7 1009.8
21 10.07 ЮВ 1 20 км ясно +23.7 +19.6 78 +29 +29 душно 1006.3 1008.4
00 11.07 ЮВ 2 20 км ясно +23.4 +18.6 74 +30 +30 очень
душно
1005.2 1007.3
03 11.07 ЮВ 3 20 км ясно +23.8 +17.4 67 +28 +29 душно 1004.7 1006.8 +23.2
06 11.07 В 3 20 км ясно +26.2 +20.7 72 +33 +43 очень
душно
1003.9 1006.0
09 11.07 В 5-11
{12}
20 км ясно +26.4 +20.2 69 +33 +43 очень
душно
1001.7 1003.8
12 11.07 В 4
{12}
20 км ясно +26.2 +21.2 74 +33 +41 очень
душно
1000.0 1002.1
15 11.07 ЮВ 5
{13}
20 км 6/0
[Ci fib]
+24.8 +21.1 80 +31 +32 очень
душно
999.8 1001.8 +26.6
18 11.07 ЮВ 4 20 км ясно +24.5 +20.8 80 +31 +31 очень
душно
1001.1 1003.1
21 11.07 ЮВ 2 20 км 10/4 600 м
[Sc Ac As]
+24.1 +20.9 82 +30 +30 очень
душно
1000.9 1003.0
00 12.07 В 2 20 км 10/5 600 м
[Sc Ac As]
+23.7 +21.1 85 +30 +30 очень
душно
999.4 1001.5
03 12.07 З 1 20 км 8/4 600 м
[Sc Ac As Ci fib]
+23.8 +21.2 85 +30 +31 очень
душно
1000.4 1002.4 +23.6
06 12.07 СЗ 3 10 км ясно +28.2 +16.5 49 +32 +42 душно 999.9 1001.9
09 12.07 СЗ 7-13
{13}
10 км ясно +31.1 +16.0 40 +34 +39 душно 1000.5 1002.5
12 12.07 СЗ 9-17
{20}
10 км 4/3
[Cu med, cong Ac cast Ci fib]
+26.6 +14.9 49 +29 +30 жарко 1002.7 1004.8
15 12.07 З 7-14
{18}
10 км 10/4 600 м
[Cb calv Ac As]
+23.1 +15.3 61 +27 +27 душно 1006.0 1008.1 +31.6 0.3
18 12.07 СЗ 6-11
{17}
10 км {ливн. осадки} 8/3 600 м
[Sc Ac As Ci fib]
+21.8 +14.4 63 +25 +25 комфорт 1008.2 1010.3
21 12.07 СЗ 4
{11}
н/о н/о +20.2 +13.6 66 +22 +22 комфорт 1009.4 1011.5
00 13.07 З 3 10 км в посл. час ливневой дождь 9/5 600 м
[Cb calv Ac As Ci fib]
+19.0 +14.0 73 +20 +20 прохладно 1009.4 1011.5
03 13.07 З 4 10 км {ливн. осадки} 10/5 600 м
[Sc Ac As]
+18.7 +13.9 74 +19 +20 холодно 1009.5 1011.7 +18.2 0.8
06 13.07 З 4 10 км 10/8 600 м
[Sc diur, vesp Ac As]
+20.2 +13.2 64 +22 +23 комфорт 1009.9 1012.0
09 13.07 СЗ 3 10 км {гроза, ливн. осадки} 9/6 600 м
[Sc diur, vesp Ac cast Ci fib]
+22.0 +13.3 58 +25 +29 комфорт 1009.4 1011.4
12 13.07 СЗ 4 20 км {гроза, ливн. осадки} 8/4 600 м
[Sc Ac cast Ci fib]
+26.0 +11.3 40 +27 +30 жарко 1008.9 1011.0
15 13.07 В 1 20 км 8/4 600 м
[Sc Ac cast Ci fib]
+22.6 +15.2 63 +26 +27 жарко 1009.4 1011.5 +26.6 2
18 13.07 Ю 1 10 км 10/4 600 м
[Sc Ac As]
+21.0 +15.1 69 +25 +25 комфорт 1010.8 1012.9
21 13.07 З 3 10 км слаб. ливневой дождь 10/10 600 м
[Cb cap]
+20.2 +15.6 75 +23 +23 комфорт 1010.1 1012.2
00 14.07 ЮЗ 2 4000 м ливневой дождь 10/10 600 м
[Cb cap]
+17.5 +15.3 87 +18 +18 прохладно 1010.4 1012.5
03 14.07 ЮЗ 2 4000 м слаб. ливневой дождь 10/10 600 м
[Cb cap]
+17.4 +15.5 89 +18 +18 холодно 1011.4 1013.5 +17.4 14
06 14.07 З 1 10 км слаб. ливневой дождь 10/8 600 м
[Cb cap Ac cuf]
+18.7 +15.4 81 +21 +22 комфорт 1010.9 1013.0 +17.2
09 14.07 СЗ 4 10 км {ливн. осадки} 9/4 600 м
[Cb calv Ac trans Ci fib]
+23.2 +13.6 55 +27 +31 душно 1010.9 1013.0
12 14.07 штиль 0 20 км {ливн. осадки} 8/4 600 м
[Cb calv Ac trans Ci fib]
+23.9 +14.4 55 +26 +32 жарко 1010.8 1012.9 360
15 14.07 ЮВ 2 20 км 6/3 600 м
[Cb calv Ac trans Ci fib]
+22.7 +13.8 57 +26 +27 жарко 1011.6 1013.7 +24.7 4
18 14.07 ЮВ 2 20 км 4/0
[Ac trans Ci fib]
+21.4 +14.5 65 +24 +24 комфорт 1010.9 1013.0
21 14.07 ЮВ 3 20 км ясно +18.1 +11.3 64 +18 +18 холодно 1008.5 993.9
00 15.07 ЮВ 4 20 км ясно +20.6 +14.5 68 +23 +23 комфорт 1008.1 1010.2
03 15.07 ЮВ 4 20 км 3/0
[Ci fib]
+20.6 +15.3 72 +24 +25 комфорт 1007.8 1009.9 +20.0
06 15.07 ЮВ 5-13
{13}
20 км ясно +23.3 +17.0 68 +28 +35 душно 1006.7 1008.8
09 15.07 ЮВ 8-16
{16}
20 км 3/3 600 м
[Cu med, cong]
+23.8 +17.4 67 +28 +30 душно 1004.9 1007.0
12 15.07 ЮВ 7-13
{17}
20 км 8/4 600 м
[Cu med, cong Ac As Ci fib]
+23.0 +17.5 71 +28 +29 душно 1004.5 1006.6
15 15.07 ЮВ 5-11
{14}
20 км 8/4 600 м
[Cb calv Ac As Ci fib]
+22.9 +17.4 71 +28 +28 душно 1003.6 1005.7 +24.1
18 15.07 ЮВ 5-10
{12}
20 км ясно +22.4 +17.6 74 +27 +27 душно 1003.5 1005.6
21 15.07 Ю 1
{10}
20 км 10/0
[]
+21.6 +17.7 78 +26 +26 душно 1004.4 1006.5

 

Местоположение метеостанции Махачкала (Дагестан, Россия): широта 43.02 долгота 47.48 высота над уровнем моря -19 м.

В архиве по умолчанию представлена погода в Махачкале за последнюю неделю. Архивные данные за месяц целиком и за предыдущие месяцы, начиная с января 2011 года, Вы можете получить, выбрав интересующий диапазон дат из раскрывающегося списка и нажав кнопку "Ввод!".


*Определитесь, кто Вы:
робот инопланетянин человек

Внимание! Время в таблицах - всемирное. Для получения местного времени необходимо прибавить поправку, которая равна 3 ч.

Смотрите также архив погоды в соседних городах и на ближайших метеорологических станциях:

Погода в Буйнакске (Дагестан, Россия) (37 км)
Погода в Сергокале (Дагестан, Россия) (65 км)
Погода в Изберге (Дагестан, Россия) (65 км)
Погода в Куппе (Дагестан, Россия) (73 км)
Погода в Хасавюрте (Дагестан, Россия) (77 км)
Погода в Гунибе (Дагестан, Россия) (81 км)
Погода в Хунзахе (Дагестан, Россия) (81 км)
Погода в Бабаюрте (Дагестан, Россия) (86 км)
Погода в Кумухе (Дагестан, Россия) (104 км)
Погода в Шелковской (Чечня, Россия) (106 км)

Пояснения к столбцам:

Ветер - указаны скорость ветра в м/с - средняя за 10 мин, порывы в срок и между сроками (в фигурных скобках) и направление, откуда дует ветер: С - северный, СВ - северо-восточный, В - восточный, ЮВ - юго-восточный, Ю - южный, ЮЗ - юго-западный, З - западный, СЗ - северо-западный.
Видимость - горизонтальная дальность видимости в метрах или километрах. При видимости от 1 до 10 км при отсутствии осадков обычно наблюдается дымка, при ухудшении видимости до 1 км и менее - туман. В сухую погоду видимость может ухудшаться дымом, пылью или мглою.
Явления - указаны атмосферные явления, наблюдавшиеся в срок или в последний час перед сроком; фигурными скобками обозначены явления, наблюдавшиеся между сроками (за 1-3 часа до срока); квадратными скобками обозначены град или гололедные отложения с указанием их диаметра в мм.
Облачность - указаны через наклонную черту общая и нижняя облачность в баллах и высота нижней границы облаков в метрах; квадратными скобками обозначены формы облаков: Ci - перистые, Cs - перисто-слоистые, Cc - перисто-кучевые, Ac - высококучевые, As - высокослоистые, Sc - слоисто-кучевые, Ns - слоисто-дождевые, Cu - кучевые, Cb - кучево-дождевые. Подробнее классификацию облаков см. в Атласе облаков (PDF).
T - Температура воздуха - температура, измеренная на высоте 2 м над землей.
Td - Температура точки росы - температура, при понижении до которой содержащийся в воздухе водяной пар достигнет насыщения.
f - Относительная влажность воздуха - влажноcть воздуха, измеренная на высоте 2 м над землей.
Te - Эффективная температура - температура, которую ощущает одетый по сезону человек в тени. Характеристика душности погоды. При расчете учитывается влияние влажности воздуха и скорости ветра на теплоощущения человека.
Tes - Эффективная температура на солнце - температура, которую ощущает человек, с поправкой на солнечный нагрев. Характеристика знойности погоды. Зависит от высоты солнца над горизонтом, облачности и скорости ветра. Ночью, в пасмурную погоду, а также при ветре 12 м/с и более поправка равна нулю.
P - Атмосферное давление - приведенное к уровню моря атмосферное давление.
Po - Атмосферное давление - измеренное на уровне метеостанции атмосферное давление.
Tmin - Минимальная температура - минимум температуры воздуха на высоте 2 м над землей.
Tmax - Максимальная температура - максимум температуры воздуха на высоте 2 м над землей.
R - Количество осадков - Количество выпавших осадков за период времени, мм. При наведении курсора мыши на число - период времени, за который выпало указанное количество осадков.
R24 - Количество осадков - Количество выпавших осадков за 24 часа, мм.
S - Снежный покров - Высота снежного покрова, см. При наведении курсора мыши на число - состояние снежного покрова и степень покрытия местности в баллах.